CZ-4C DEB, 43266

Orbit data source: Space-Track

CZ-4C DEB, 43266 is space debris in SSO originally from a launch on Sat, 31 Mar 2018 UTC launched from the Taiyaun Space Center, China (TSC). Debris objects in space refer to the collection of defunct objects orbiting the Earth. Examples of debris include non-operational satellites, rocket bodies, and fragments generated from explosions, collisions, or faulty payload assembly.

Loading next visibility...
Identifier
43266, 2018-031H
Orbit
SSO
Country
Flag of CNCN / PRC
Related business
Manufacturer
Unknown
Mission
Spacecraft
Bus & Motor
Unknown
Mass
Unknown
Launch date (UTC)
2018-03-31 (8 years ago)
Launch vehicle
Unknown
Launch site
Taiyaun Space Center, China (TSC)
Object type
Payload
Rocket body
Debris
Shape & HBR
Unknown shape, 0.1 m
Radar Cross Section
Medium (>0.1 m² and <1 m²)

Expand to show TLE details & history
Last TLE update: 2 days ago

TLE from 2 days ago
0 CZ-4C DEB
1 43266U 18031H   26171.44442791  .00008112  00000-0  42225-3 0  9996
2 43266  98.1709 353.6029 0018345 282.7720  77.1461 15.16187256447265
Epoch: 2026-06-20T10:39Z
TLE epoch observation values (Epoch: 2026-06-20T10:39:58.571Z)
Latitude
0.00003°
Longitude
-75.05011°
Altitude
517.646 km
Speed
7.606 km/s
True Right ascension
23h 34m 24s
True Declination
0° 00' 00"
Sunlit
Object was in daylight at epoch
Visualization orbit readout
Latitude
Unknown
Longitude
Unknown
Altitude
Unknown
Speed
Unknown
Apparent Right ascension
Unknown
Apparent Declination
Unknown
Sunlit
N/A
Visualization observer readout
Local Sidereal Time
00:51:15
Azimuth
Unknown
Elevation
Unknown
Doppler factor
Unknown
Orbital elements
Apogee altitude
527.026 km
Perigee altitude
501.737 km
Semi-major axis
6,892.519 km
Eccentricity
0.00183
Inclination
98.1709°
RAAN
353.6029°
Arg. of periapsis
282.772°
True anomaly
77.35115°
Mean anomaly
77.1461°
Eccentric anomaly
77.24862°
Mean motion
3.79294 °/min
Orbital period
94.91 mins
BSTAR
0.00042225
Loading maneuver chart data...
Computing Atmospheric mass density...
Loading historical data...
Loading historical data...
Loading historical data...
Loading historical data...
Loading historical data...
Loading historical data...
Loading historical data...

Documentation

Showing up to 5 results
|